Location: Azat
(46.0765°N, 1.7600°E)
Time: 03:31:42
(UTC+00:00)

CZ-2C R/B - Pass Details

Date: 09 April 2020
Orbit: 785 x 870 km, 98.3° (Epoch: 02 June)

Event Time Altitude Azimuth Distance (km) Brightness Sun altitude
Rises 19:17:22 0° 24° (NNE) 3,288 5.7 -8.3°
Reaches altitude 10° 19:20:03 10° 36° (NE) 2,356 4.9 -8.7°
Maximum altitude 19:24:24 27° 94° (E) 1,496 3.5 -9.4°
Drops below altitude 10° 19:28:46 10° 151° (SSE) 2,362 4.6 -10.1°
Sets 19:31:27 0° 163° (SSE) 3,298 5.4 -10.5°
